WFOV (USA 332)

Last updated on Mon Sep 07 2026 00:03:01 GMT+0000 (Coordinated Universal Time)

1 52940U 22073A 26249.53030980 -.00000378 00000+0 00000+0 0 9992 2 52940 3.9131 77.4402 0002855 168.2315 50.1861 1.00271379 15185
UTC large
Height (km)
Speed (km/s)
/
Latitude / Longitude
Inclination (degrees)
Orbital Period (minutes)
Azimuth
Elevation
Range (km)
Doppler Factor

Next 0 passes for location: London (51.5072 / 0.1276)

No passes found over London.
WFOV (USA 332)